When you browse on this site, cookies collect data to enhance your experience and personalize the content and advertising you see.
Visit our Privacy Policy to learn more. By continuing to use the site, you agree to this use of cookies and data.
  • In Latvia
  • List of Countries
  • For 7 days
  • Water Temperature
  • Satellite Maps
  • Weather Map
  • Weather Widgets
  • user-avatar
    Login

    Hourly Weather Albany

    Today, 27 May, Monday

    Time Temperature Precipitation Wind Pressure Humidity
    00:00 +12°C° 0 mm 1 mps 767 mmHg 89%
    01:00 +12°C° 0 mm 1 mps 767 mmHg 88%
    02:00 +12°C° 0 mm 1 mps 767 mmHg 89%
    03:00 +12°C° 0 mm 1 mps 767 mmHg 90%
    04:00 +12°C° 0 mm 1 mps 767 mmHg 91%
    05:00 +11°C° 0 mm 1 mps 767 mmHg 91%
    06:00 +11°C° 0 mm 1 mps 767 mmHg 91%
    07:00 +12°C° 0 mm 1 mps 767 mmHg 91%
    08:00 +13°C° 0 mm 1 mps 767 mmHg 88%
    09:00 +14°C° 0 mm 1 mps 767 mmHg 79%
    10:00 +16°C° 0 mm 1 mps 767 mmHg 71%
    11:00 +17°C° 0 mm 0 mps 767 mmHg 62%
    12:00 +19°C° 0 mm 1 mps 767 mmHg 61%
    13:00 +19°C° 0 mm 1 mps 766 mmHg 59%
    14:00 +19°C° 0 mm 2 mps 766 mmHg 58%
    15:00 +17°C° 0 mm 2 mps 766 mmHg 65%
    16:00 +16°C° 0 mm 2 mps 766 mmHg 71%
    17:00 +15°C° 0 mm 2 mps 766 mmHg 77%
    18:00 +14°C° 0 mm 2 mps 766 mmHg 81%
    19:00 +14°C° 0 mm 2 mps 766 mmHg 84%
    20:00 +13°C° 0 mm 2 mps 766 mmHg 88%
    21:00 +13°C° 0 mm 1 mps 766 mmHg 89%
    22:00 +12°C° 0 mm 1 mps 766 mmHg 89%
    23:00 +12°C° 0 mm 1 mps 767 mmHg 90%

    Tomorrow, 28 May, Tuesday

    Time Temperature Precipitation Wind Pressure Humidity
    00:00 +12°C° 0 mm 1 mps 766 mmHg 90%
    01:00 +12°C° 0 mm 1 mps 766 mmHg 89%
    02:00 +12°C° 0 mm 1 mps 766 mmHg 88%
    03:00 +12°C° 0 mm 1 mps 766 mmHg 89%
    04:00 +11°C° 0 mm 0 mps 766 mmHg 90%
    05:00 +11°C° 0 mm 0 mps 766 mmHg 91%
    06:00 +11°C° 0 mm 0 mps 766 mmHg 90%
    07:00 +11°C° 0 mm 0 mps 766 mmHg 90%
    08:00 +11°C° 0 mm 0 mps 766 mmHg 89%
    09:00 +14°C° 0 mm 1 mps 766 mmHg 81%
    10:00 +16°C° 0 mm 1 mps 766 mmHg 74%
    11:00 +17°C° 0 mm 2 mps 767 mmHg 66%
    12:00 +17°C° 0 mm 2 mps 766 mmHg 66%
    13:00 +17°C° 0 mm 2 mps 766 mmHg 66%
    14:00 +17°C° 0 mm 3 mps 765 mmHg 66%
    15:00 +16°C° 0 mm 3 mps 765 mmHg 70%
    16:00 +14°C° 0 mm 3 mps 765 mmHg 74%
    17:00 +13°C° 0 mm 3 mps 765 mmHg 78%
    18:00 +13°C° 0 mm 3 mps 766 mmHg 81%
    19:00 +12°C° 0 mm 3 mps 766 mmHg 84%
    20:00 +11°C° 0 mm 3 mps 766 mmHg 87%
    21:00 +11°C° 0 mm 3 mps 766 mmHg 87%
    22:00 +11°C° 0 mm 3 mps 766 mmHg 87%
    23:00 +11°C° 0 mm 3 mps 767 mmHg 88%

    Day after tomorrow, 29 May, Wednesday

    Time Temperature Precipitation Wind Pressure Humidity
    00:00 +11°C° 0 mm 3 mps 767 mmHg 88%
    01:00 +11°C° 0 mm 3 mps 766 mmHg 89%
    02:00 +10°C° 0 mm 3 mps 766 mmHg 89%
    03:00 +10°C° 0 mm 3 mps 766 mmHg 90%
    04:00 +10°C° 0 mm 3 mps 766 mmHg 90%
    05:00 +10°C° 0 mm 3 mps 766 mmHg 90%
    06:00 +10°C° 0 mm 3 mps 766 mmHg 90%
    07:00 +11°C° 0 mm 4 mps 767 mmHg 89%
    08:00 +11°C° 0 mm 4 mps 767 mmHg 88%
    09:00 +12°C° 0 mm 4 mps 767 mmHg 81%
    10:00 +14°C° 0 mm 4 mps 767 mmHg 74%
    11:00 +15°C° 0 mm 5 mps 767 mmHg 67%
    12:00 +16°C° 0 mm 5 mps 766 mmHg 65%
    13:00 +16°C° 0 mm 5 mps 766 mmHg 63%
    14:00 +17°C° 0 mm 5 mps 765 mmHg 61%
    15:00 +16°C° 0 mm 5 mps 765 mmHg 65%
    16:00 +15°C° 0 mm 5 mps 765 mmHg 69%
    17:00 +14°C° 0 mm 5 mps 765 mmHg 73%
    18:00 +13°C° 0 mm 5 mps 765 mmHg 77%
    19:00 +13°C° 0 mm 6 mps 766 mmHg 81%
    20:00 +11°C° 0 mm 6 mps 766 mmHg 84%
    21:00 +11°C° 0 mm 6 mps 766 mmHg 84%
    22:00 +11°C° 0 mm 6 mps 766 mmHg 84%
    23:00 +11°C° 0 mm 6 mps 766 mmHg 85%

    30 May, Thursday

    Time Temperature Precipitation Wind Pressure Humidity
    00:00 +11°C° 0 mm 7 mps 765 mmHg 82%
    01:00 +11°C° 0 mm 7 mps 765 mmHg 80%
    02:00 +11°C° 0 mm 7 mps 765 mmHg 77%
    03:00 +11°C° 0 mm 6 mps 764 mmHg 76%
    04:00 +10°C° 0 mm 6 mps 764 mmHg 74%
    05:00 +10°C° 0 mm 6 mps 764 mmHg 73%
    06:00 +11°C° 0 mm 6 mps 764 mmHg 70%
    07:00 +11°C° 0 mm 6 mps 764 mmHg 67%
    08:00 +12°C° 0 mm 7 mps 764 mmHg 64%
    09:00 +15°C° 0 mm 7 mps 764 mmHg 58%
    10:00 +16°C° 0 mm 7 mps 763 mmHg 52%
    11:00 +18°C° 0 mm 8 mps 763 mmHg 46%
    12:00 +20°C° 0 mm 7 mps 762 mmHg 44%
    13:00 +21°C° 0 mm 7 mps 761 mmHg 41%
    14:00 +22°C° 0 mm 7 mps 760 mmHg 38%
    15:00 +21°C° 0 mm 7 mps 760 mmHg 39%
    16:00 +21°C° 0 mm 6 mps 760 mmHg 39%
    17:00 +20°C° 0 mm 6 mps 760 mmHg 40%
    18:00 +20°C° 0 mm 6 mps 761 mmHg 39%
    19:00 +20°C° 0 mm 6 mps 761 mmHg 39%
    20:00 +20°C° 0 mm 6 mps 761 mmHg 38%
    21:00 +20°C° 0 mm 6 mps 761 mmHg 37%
    22:00 +20°C° 0 mm 6 mps 761 mmHg 37%
    23:00 +21°C° 0 mm 6 mps 761 mmHg 36%

    31 May, Friday

    Time Temperature Precipitation Wind Pressure Humidity
    00:00 +20°C° 0.1 mm 6 mps 760 mmHg 42%
    01:00 +19°C° 0.1 mm 6 mps 760 mmHg 47%
    02:00 +17°C° 0.1 mm 6 mps 760 mmHg 53%
    03:00 +17°C° 0.1 mm 5 mps 761 mmHg 57%
    04:00 +17°C° 0.1 mm 5 mps 761 mmHg 61%
    05:00 +18°C° 0.1 mm 4 mps 761 mmHg 65%
    06:00 +17°C° 0.8 mm 4 mps 762 mmHg 73%
    07:00 +17°C° 0.8 mm 3 mps 763 mmHg 81%
    08:00 +16°C° 0.8 mm 3 mps 764 mmHg 89%
    09:00 +16°C° 0.1 mm 3 mps 764 mmHg 85%
    10:00 +17°C° 0.1 mm 3 mps 764 mmHg 82%
    11:00 +17°C° 0.1 mm 4 mps 765 mmHg 78%
    12:00 +17°C° 0 mm 4 mps 765 mmHg 74%
    13:00 +17°C° 0 mm 3 mps 765 mmHg 70%
    14:00 +17°C° 0 mm 3 mps 765 mmHg 66%
    15:00 +16°C° 0 mm 3 mps 765 mmHg 66%
    16:00 +16°C° 0 mm 3 mps 766 mmHg 66%
    17:00 +15°C° 0 mm 2 mps 766 mmHg 66%
    18:00 +15°C° 0 mm 2 mps 767 mmHg 69%
    19:00 +14°C° 0 mm 2 mps 767 mmHg 72%
    20:00 +13°C° 0 mm 2 mps 768 mmHg 75%
    21:00 +13°C° 0 mm 2 mps 768 mmHg 77%
    22:00 +12°C° 0 mm 2 mps 768 mmHg 78%
    23:00 +12°C° 0 mm 2 mps 768 mmHg 80%

    1 June, Saturday

    Time Temperature Precipitation Wind Pressure Humidity
    00:00 +12°C° 0 mm 2 mps 768 mmHg 81%
    01:00 +12°C° 0 mm 2 mps 768 mmHg 82%
    02:00 +12°C° 0 mm 2 mps 768 mmHg 82%
    03:00 +12°C° 0 mm 2 mps 768 mmHg 83%
    04:00 +12°C° 0 mm 2 mps 769 mmHg 84%
    05:00 +11°C° 0 mm 3 mps 769 mmHg 85%
    06:00 +11°C° 0 mm 3 mps 769 mmHg 84%
    07:00 +12°C° 0 mm 3 mps 769 mmHg 83%
    08:00 +12°C° 0 mm 3 mps 770 mmHg 82%
    09:00 +13°C° 0 mm 4 mps 770 mmHg 77%
    10:00 +14°C° 0 mm 4 mps 770 mmHg 73%
    11:00 +16°C° 0 mm 5 mps 770 mmHg 69%
    12:00 +16°C° 0 mm 5 mps 769 mmHg 69%
    13:00 +17°C° 0 mm 5 mps 769 mmHg 69%
    14:00 +17°C° 0 mm 5 mps 768 mmHg 69%
    15:00 +17°C° 0 mm 5 mps 768 mmHg 73%
    16:00 +16°C° 0 mm 5 mps 768 mmHg 76%
    17:00 +15°C° 0 mm 5 mps 768 mmHg 80%
    18:00 +15°C° 0 mm 5 mps 768 mmHg 84%
    19:00 +14°C° 0 mm 5 mps 769 mmHg 87%
    20:00 +14°C° 0 mm 5 mps 769 mmHg 90%
    21:00 +14°C° 0 mm 5 mps 769 mmHg 90%
    22:00 +14°C° 0 mm 5 mps 768 mmHg 91%
    23:00 +14°C° 0 mm 5 mps 768 mmHg 91%
    Show more